Погода в Старой Бинарадке

Россия / Самарская область     53°34′43″N   49°58′01″E
темп.,
°C
ветер,
м/с
пор.,
м/с
влажн.,
%
обл.,
%
осадки,
мм/ч
давл.,
гПа
погр.,
м
17 апреля, сб
сб1701:00+11св36847 0.0 1021138
04:00+9св36936 0.0 1022137
07:00+9св498914 0.0 1022275
10:00+14всв57655 0.0 1022537
13:00+17всв56505 0.0 10211011
16:00+18св56455 0.0 10211301
19:00+15св49520 0.0 1020335
22:00+11св410605 0.0 1021282
18 апреля, вс
вс1801:00+8св410633 0.0 1020290
04:00+6всв39651 0.0 1020241
07:00+6всв410621 0.0 1020306
10:00+11всв67442 0.0 1020646
13:00+15всв563820 0.0 10191098
16:00+15всв663354 0.0 10191438
19:00+13всв5104299 0.0 1020486
22:00+9всв6125580 0.0 1021578
19 апреля, пн
пн1901:00+6всв51266100 0.0 1023498
04:00+4всв51162100 0.0 1023513
07:00+3всв71264100 0.0 1024556
10:00+7в71060100 0.0 1024992
13:00+7в81057100 0.0 10241192
16:00+6в71161100 0.0 10251097
19:00+4в71168100 0.0 10271003
22:00+4вюв61363100 0.0 10271045
20 апреля, вт
вт2001:00+4в5126349 0.0 1028885
04:00+2в6135461 0.0 1029655
07:00+1вюв613545 0.0 1031725
10:00+4вюв811435 0.0 1031973
13:00+8вюв811360 0.0 10301307
16:00+9вюв7103198 0.0 10291470
19:00+8вюв7123844 0.0 1028957
22:00+5юв71544100 0.0 1029765
21 апреля, ср
ср2101:00+4юв61647100 0.0 1028746
04:00+3юв61550100 0.0 1030660
07:00+2юв71752100 0.0 1028628
10:00+5юв81644100 0.0 1028801
13:00+8ююв71338100 0.0 1027977
16:00+9ююв71340100 0.0 10271124
19:00+7ю61360100 0.1 1028930
22:00+6ююв61475100 0.4 1029789